Regional Weather Roundup
Issued by NWS

Home | Current Version | Previous Version | Text Only | Print | Product List | Glossary Off
Versions: 1 2 3 4 5 6 7 8 9 10 11 12 13 14 15 16 17 18 19 20 21 22 23 24 25 26 27 28 29 30 31 32 33 34 35 36 37 38 39 40 41 42 43 44 45 46 47 48 49 50

000
ASUS44 KMEG 242210
RWRTN
TENNESSEE HOURLY STATE WEATHER ROUNDUP
NATIONAL WEATHER SERVICE MEMPHIS TN
500 PM CDT MON JUL 24 2017

TNZ002-004-019-021-049-052-054-088>092-242300-
WEST TENNESSEE

CITY           SKY/WX    TMP DP  RH WIND       PRES   REMARKS
MEMPHIS INTL   MOSUNNY   91  76  61 SW7       29.93S HX 103
NWS MEMPHIS      N/A     92 N/A N/A MISG        N/A
JACKSON        PTSUNNY   90  77  65 W6        29.94S HX 103
SOMERVILLE       N/A     90  73  58 CALM      29.93S HX  98
COVINGTON      MOSUNNY   90  75  62 NW6       29.93S HX 100
UNION CITY     SUNNY     90  75  62 CALM      29.92S HX 100
BOLIVAR        MOSUNNY   91  72  52 SW5       29.93S HX  98
PARIS          SUNNY     88  75  66 S5        29.93S HX  97
HUNTINGDON     SUNNY     90  75  62 CALM      29.93S HX 100
LEXINGTON      SUNNY     90  73  58 NW3       29.93S HX  98
SELMER         SUNNY     88  75  66 VRB5      29.94S HX  97
SAVANNAH       PTSUNNY   90  77  66 CALM      29.92S HX 102
$$

TNZ008-025-027-028-033-062-065-066-242300-
NORTH MIDDLE TENNESSEE

CITY           SKY/WX    TMP DP  RH WIND       PRES   REMARKS
NASHVILLE      PTSUNNY   91  72  53 N5        29.94S HX  98
PORTLAND       SUNNY     90  72  55 CALM      29.94S HX  96
CLARKSVILLE    CLOUDY    88  73  61 W6        29.93F HX  95
SMYRNA         MOSUNNY   91  74  57 SE6       29.95S HX 100
COOKEVILLE     SUNNY     86  70  58 CALM      29.98R HX  90
GALLATIN       PTSUNNY   88  73  62 CALM      29.96S HX  96
CROSSVILLE     SUNNY     84  67  56 W7        30.03R
$$

TNZ061-075-076-078-094-096-097-242300-
SOUTH MIDDLE TENNESSEE

CITY           SKY/WX    TMP DP  RH WIND       PRES   REMARKS
FAYETTEVILLE   SUNNY     88  73  62 VRB5      29.96S HX  96
TULLAHOMA      MOSUNNY   88  68  51 N5        29.99S HX  91
WINCHESTER     MOSUNNY   88  70  55 CALM      29.97S HX  92
MCMINNVILLE    SUNNY     90  70  51 CALM      29.98S HX  95
COLUMBIA       SUNNY     88  75  66 CALM      29.93S HX  97
SHELBYVILLE    SUNNY     88  72  58 CALM      29.96S HX  94
$$

TNZ017-018-042-046-047-242300-
NORTHEAST TENNESSEE

CITY           SKY/WX    TMP DP  RH WIND       PRES   REMARKS
TRI CITIES     PTSUNNY   88  63  43 W10       29.98S
ELIZABETHTON   SUNNY     86  66  51 W6        29.98F
$$

TNZ012-013-036-069-073-074-242300-
CENTRAL EAST TENNESSEE

CITY           SKY/WX    TMP DP  RH WIND       PRES   REMARKS
KNOXVILLE      PTSUNNY   89  60  37 VRB3      29.96R
OAK RIDGE      SUNNY     90  65  43 VRB5      29.98R HX  92
DOWNTOWN KNOXV SUNNY     91  70  49 SW6       29.95R HX  97
GATLINBURG     SUNNY     90  64  43 W7        29.96R HX  91
MORRISTOWN     SUNNY     86  68  54 CALM      29.98R
JACKSBORO      PTSUNNY   86  72  62 S5        30.01R HX  92
$$

TNZ083-085-099-242300-
SOUTHEAST TENNESSEE

CITY           SKY/WX    TMP DP  RH WIND       PRES   REMARKS
CHATTANOOGA    MOSUNNY   92  68  45 CALM      29.95S HX  96
DAYTON         CLEAR     90  70  51 CALM      29.94S HX  95
$$

SKY/WX REPORTED AS FAIR MEANS FEW OR NO CLOUDS BELOW
12 THOUSAND FEET.





USA.gov is the U.S. government's official web portal to all federal, state and local government web resources and services.